Вернуться в каталог

FENGYUN 1C DEB

LostSSO
NORAD 33681·DEBRIS·🇨🇳 China

Запущен May 10, 1999 с Taiyuan Satellite Launch Center

Loading…

Ближайшие Пролёты (ближайшие 24 часа)

TLE

УстаревшееSource: Space-Track

Эпоха: Jun 28, 2025, 16:43 UTC

1 33681U 99025DFS 25179.69661058  .00000826  00000-0  55307-3 0  9990
2 33681  99.0575 236.7941 0101270 139.6576 349.4128 14.01198282631533

Отслеживайте FENGYUN 1C DEB в реальном времени с AllMySat

Download on the App Store